Flag for Thailand Weather past 2 weeks in Udon Thani, Thailand

Now
79 °F

Clear.


Feels Like: 82 °F
Forecast: 75 / 83 °F
Wind: 9 mph from South

Location: Udon Thani Airport

Current Time: Aug 1, 2015 at 9:18:48 PM

Latest Report: Aug 1, 2015 at 9:00 PM


Visibility: 10 mi

Pressure: 29.80 "Hg

Humidity: 89%

Dew point: 75 °F

Location of Udon ThaniLocation

Historic Weather in Udon Thani — Graph

°F

Udon Thani temperature yesterday

Maximum temperature yesterday: 84 °F (at 2:00 PM)
Minimum temperature yesterday: 73 °F (at 6:00 AM)
Average temperature yesterday: 79 °F

Past Weeks' High & Low Weather Summary

 TemperatureHumidityPressure
High90 °F (Jul 18, 1:00 PM)100% (Jul 19, 7:00 AM)29.89 "Hg (Jul 19, 7:00 AM)
Low73 °F (Jul 30, 6:00 AM)59% (Jul 26, 3:00 PM)29.62 "Hg (Jul 18, 4:00 PM)
Average80 °F84%29.79 "Hg
* Reported Jul 17 10:00 PM — Aug 1 8:00 PM, Udon Thani, Weather by CustomWeather, © 2015

Note: Actual official high and low records may vary slightly from our data, if they occured in-between our weather recording intervals... More about our weather records

Advertising

Udon Thani weather history for previous 24 hours

 ConditionsComfort  
Time TempWeatherWind HumidityBarometerVisibility
8:00 PM
Sat, Aug 1
79 °FClear.8 mph89%29.77 "Hg10 mi
7:00 PM77 °FPassing clouds.6 mph94%29.77 "HgN/A
6:00 PM79 °FPassing clouds.8 mph89%29.74 "HgN/A
5:00 PM79 °FPassing clouds.7 mph89%29.74 "HgN/A
4:00 PM77 °FPartly sunny.5 mph94%29.77 "HgN/A
3:00 PM77 °FRain. More clouds than sun.5 mph94%29.80 "Hg3 mi
2:00 PM79 °FLight rain. Broken clouds.5 mph89%29.80 "HgN/A
1:00 PM79 °FPartly sunny.6 mph89%29.83 "HgN/A
12:00 PM77 °FLight rain. Broken clouds.6 mph94%29.83 "Hg6 mi
11:00 AM77 °FLight rain. More clouds than sun.6 mph89%29.86 "Hg5 mi
10:00 AM75 °FLight rain. More clouds than sun.5 mph94%29.86 "Hg4 mi
9:00 AM75 °FLight rain. More clouds than sun.5 mph94%29.86 "Hg4 mi
8:00 AM75 °FLight rain. More clouds than sun.3 mph94%29.83 "Hg4 mi
7:00 AM73 °FLight rain. More clouds than sun.3 mph100%29.83 "Hg4 mi
6:00 AM73 °FLight rain. More clouds than sun.3 mph100%29.80 "Hg4 mi
10:00 PM
Fri, Jul 31
79 °FPartly cloudy.7 mph89%29.86 "HgN/A
9:00 PM79 °FPassing clouds.7 mph89%29.83 "HgN/A
Weather by CustomWeather, © 2015

See weather overviewHow to use our weather pages